Hot Springs, VA

9:55 PM EST on November 20, 2017 (GMT -0500)
Ingalls

Weather History for KHSP - January, 2012

Change the Weather History Date:

Friday, January 20, 2012

  Actual Average Record
Temperature  
Mean Temperature 30 °F -  
Max Temperature 35 °F 29 °F 53 °F (2006)
Min Temperature 26 °F 16 °F 0 °F (2008)
Degree Days  
Heating Degree Days 34    
Moisture  
Dew Point 22 °F    
Average Humidity 72    
Maximum Humidity 100    
Minimum Humidity 47    
Precipitation  
Precipitation 0.07 in - - ()
Sea Level Pressure  
Sea Level Pressure 30.02 in    
Wind  
Wind Speed 15 mph (SW)    
Max Wind Speed 25 mph    
Max Gust Speed 36 mph    
Visibility 8 miles    
Events Snow    
Averages and records for this station are not official NWS values.
T = Trace of Precipitation, MM = Missing Value Source: NWS Daily Summary

Daily Weather History Graph

Daily Weather History Graph

Search for Another Location

Airport or City:

Trip Planner

Search our weather history database for the weather conditions in past years. The results will help you decide how hot, cold, wet, or windy it might be!

Date:

Astronomy

Jan. 20, 2012 Rise Set
Actual Time 7:32 AM EST 5:28 PM EST
Civil Twilight 7:03 AM EST 5:57 PM EST
Nautical Twilight 6:31 AM EST 6:29 PM EST
Astronomical Twilight 6:00 AM EST 7:00 PM EST
Moon 5:06 AM EST (1/20) 2:59 PM EST (1/20)
Length of Visible Light 10h 53m
Length of Day
9h 56m
Waning Crescent, 8% of the Moon is Illuminated
Jan 20
Waning Crescent
Jan 23
New
Jan 30
First Quarter
Feb 7
Full
Feb 14
Last Quarter

Hourly Weather History & Observations

Time (EST) Temp. Windchill Dew Point Humidity Pressure Visibility Wind Dir Wind Speed Gust Speed Precip Events Conditions
12:15 AM 30.2 °F 17.8 °F 12.2 °F 47% 29.92 in 10.0 mi West 19.6 mph - N/A   Overcast
12:36 AM 30.2 °F 17.8 °F 12.2 °F 47% 29.92 in 10.0 mi West 19.6 mph 28.8 mph N/A   Overcast
12:55 AM - - - N/A% 29.92 in 10.0 mi West 18.4 mph 27.6 mph N/A   Overcast
1:17 AM 30.2 °F 17.1 °F 12.2 °F 47% 29.92 in 10.0 mi West 21.9 mph 28.8 mph N/A   Overcast
1:37 AM 30.2 °F 18.1 °F 12.2 °F 47% 29.92 in 10.0 mi West 18.4 mph 26.5 mph N/A   Overcast
1:55 AM 30.2 °F 18.1 °F 12.2 °F 47% 29.93 in 10.0 mi West 18.4 mph 25.3 mph N/A   Overcast
2:15 AM 28.4 °F 15.1 °F 12.2 °F 51% 29.93 in - West 20.7 mph 26.5 mph N/A   Overcast
2:35 AM 28.4 °F 16.2 °F 14.0 °F 55% 29.93 in 10.0 mi West 17.3 mph 29.9 mph N/A   Unknown
2:56 AM 28.4 °F 14.7 °F 14.0 °F 55% 29.92 in 10.0 mi West 21.9 mph 29.9 mph N/A   Overcast
3:15 AM 28.4 °F 14.1 °F 15.8 °F 59% 29.93 in 10.0 mi West 24.2 mph 31.1 mph N/A   Overcast
3:37 AM 28.4 °F 14.1 °F 15.8 °F 59% 29.92 in 10.0 mi West 24.2 mph 29.9 mph N/A   Overcast
3:55 AM 28.4 °F 14.4 °F 15.8 °F 59% 29.93 in 10.0 mi West 23.0 mph 29.9 mph N/A   Unknown
4:15 AM 28.4 °F 15.8 °F 17.6 °F 64% 29.94 in 10.0 mi West 18.4 mph 33.4 mph N/A   Unknown
4:35 AM 28.4 °F 13.8 °F 17.6 °F 64% 29.94 in 10.0 mi West 25.3 mph 29.9 mph N/A   Overcast
5:17 AM 26.6 °F 12.4 °F 19.4 °F 74% 29.94 in 10.0 mi West 21.9 mph 28.8 mph N/A   Scattered Clouds
5:35 AM 26.6 °F 11.4 °F 19.4 °F 74% 29.94 in 1.0 mi West 25.3 mph 34.5 mph N/A   Clear
5:56 AM 26.6 °F 11.7 °F 19.4 °F 74% 29.94 in 10.0 mi West 24.2 mph 32.2 mph N/A   Clear
6:16 AM 26.6 °F 12.4 °F 21.2 °F 80% 29.95 in 10.0 mi West 21.9 mph 32.2 mph N/A   Clear
6:35 AM 26.6 °F 11.4 °F 21.2 °F 80% 29.96 in 10.0 mi West 25.3 mph 35.7 mph N/A   Unknown
7:15 AM 26.6 °F 13.8 °F 21.2 °F 80% 29.97 in 10.0 mi West 17.3 mph 26.5 mph N/A   Unknown
7:37 AM 26.6 °F 13.4 °F 21.2 °F 80% 29.99 in 10.0 mi West 18.4 mph 24.2 mph N/A   Clear
7:56 AM 26.6 °F 13.8 °F 21.2 °F 80% 30.00 in 10.0 mi West 17.3 mph - N/A   Clear
8:16 AM 26.6 °F 14.7 °F 21.2 °F 80% 30.02 in 10.0 mi West 15.0 mph 19.6 mph N/A   Clear
8:36 AM 26.6 °F 16.8 °F 21.2 °F 80% 30.03 in 10.0 mi West 10.4 mph - N/A   Clear
8:56 AM 28.4 °F 19.7 °F 21.2 °F 74% 30.05 in 10.0 mi West 9.2 mph - N/A   Clear
9:16 AM 28.4 °F 22.2 °F 21.2 °F 74% 30.07 in 10.0 mi West 5.8 mph - N/A   Clear
9:36 AM 30.2 °F 23.4 °F 21.2 °F 69% 30.08 in 10.0 mi West 6.9 mph 16.1 mph N/A   Clear
9:57 AM 30.2 °F 26.7 °F 21.2 °F 69% 30.09 in 10.0 mi SW 3.5 mph - N/A   Clear
10:16 AM 30.2 °F 25.4 °F 23.0 °F 75% 30.10 in 10.0 mi West 4.6 mph - N/A   Clear
10:36 AM 30.2 °F 25.4 °F 21.2 °F 69% 30.10 in 10.0 mi WSW 4.6 mph - N/A   Scattered Clouds
10:56 AM 30.2 °F - 23.0 °F 75% 30.09 in 10.0 mi Calm Calm - N/A   Mostly Cloudy
11:16 AM 32.0 °F 27.5 °F 24.8 °F 75% 30.10 in 10.0 mi West 4.6 mph - N/A   Mostly Cloudy
11:39 AM 33.8 °F 28.6 °F 24.8 °F 70% 30.09 in 10.0 mi WSW 5.8 mph - N/A   Overcast
11:56 AM 33.8 °F 28.6 °F 24.8 °F 70% 30.09 in 10.0 mi WSW 5.8 mph - N/A   Overcast
12:16 PM 33.8 °F - 24.8 °F 70% 30.09 in 10.0 mi Calm Calm - N/A   Overcast
12:36 PM 33.8 °F 30.8 °F 24.8 °F 70% 30.08 in 10.0 mi West 3.5 mph - N/A   Mostly Cloudy
12:56 PM 33.8 °F 27.0 °F 24.8 °F 70% 30.07 in 10.0 mi West 8.1 mph - N/A   Clear
1:16 PM 33.8 °F 27.7 °F 24.8 °F 70% 30.06 in 10.0 mi West 6.9 mph - N/A   Mostly Cloudy
1:37 PM 35.6 °F 31.7 °F 26.6 °F 70% 30.06 in 10.0 mi West 4.6 mph - N/A   Scattered Clouds
1:56 PM 35.6 °F 32.8 °F 26.6 °F 70% 30.05 in 10.0 mi WSW 3.5 mph - N/A   Mostly Cloudy
2:16 PM 35.6 °F 31.7 °F 24.8 °F 65% 30.05 in 10.0 mi South 4.6 mph - N/A   Mostly Cloudy
2:37 PM 35.6 °F 29.9 °F 24.8 °F 65% 30.04 in 10.0 mi SSE 6.9 mph - N/A   Mostly Cloudy
2:55 PM 35.6 °F 31.7 °F 24.8 °F 65% 30.04 in 10.0 mi SSE 4.6 mph - N/A   Overcast
3:15 PM 33.8 °F 27.7 °F 24.8 °F 70% 30.05 in 10.0 mi SSE 6.9 mph - N/A   Mostly Cloudy
3:35 PM 33.8 °F 27.0 °F 24.8 °F 70% 30.05 in 10.0 mi South 8.1 mph - N/A   Mostly Cloudy
3:55 PM 33.8 °F 26.4 °F 24.8 °F 70% 30.05 in 10.0 mi SE 9.2 mph - N/A   Mostly Cloudy
4:35 PM 33.8 °F 29.6 °F 24.8 °F 70% 30.07 in 10.0 mi South 4.6 mph - N/A   Overcast
4:55 PM 33.8 °F 27.7 °F 24.8 °F 70% 30.08 in 10.0 mi South 6.9 mph - N/A   Overcast
5:15 PM 35.6 °F 30.7 °F 26.6 °F 70% 30.08 in 10.0 mi South 5.8 mph - N/A   Overcast
5:55 PM 33.8 °F 27.7 °F 24.8 °F 70% 30.05 in 10.0 mi SE 6.9 mph - N/A   Overcast
6:15 PM 33.8 °F 25.8 °F 24.8 °F 70% 30.05 in 10.0 mi SE 10.4 mph - N/A   Overcast
6:35 PM 32.0 °F 22.5 °F 24.8 °F 75% 30.06 in 10.0 mi SSE 12.7 mph 18.4 mph N/A   Overcast
6:55 PM 30.2 °F 20.8 °F 26.6 °F 86% 30.05 in 7.0 mi SSE 11.5 mph - N/A   Overcast
7:15 PM 30.2 °F 21.9 °F 26.6 °F 86% 30.06 in 4.0 mi SSE 9.2 mph - 0.01 in Snow Light Snow
7:37 PM 30.2 °F 21.3 °F 28.4 °F 93% 30.04 in 5.0 mi SE 10.4 mph - 0.02 in Snow Light Snow
7:55 PM 30.2 °F 23.4 °F 28.4 °F 93% 30.06 in 0.2 mi SSE 6.9 mph - 0.01 in   Overcast
8:15 PM 28.4 °F 18.5 °F 28.4 °F 100% 30.03 in 0.2 mi ESE 11.5 mph - 0.03 in   Overcast
8:35 PM 28.4 °F 18.5 °F 28.4 °F 100% 30.05 in 0.2 mi SE 11.5 mph 16.1 mph 0.03 in   Overcast
8:55 PM 28.4 °F 20.4 °F 28.4 °F 100% 30.05 in 0.2 mi SE 8.1 mph - 0.01 in   Overcast
9:15 PM 28.4 °F 18.0 °F 28.4 °F 100% 30.02 in 0.2 mi SE 12.7 mph - 0.02 in   Overcast
9:35 PM 26.6 °F 17.5 °F 26.6 °F 100% 30.04 in 0.2 mi SSE 9.2 mph - 0.02 in Snow Light Snow
9:55 PM 26.6 °F 16.8 °F 26.6 °F 100% 30.04 in 0.2 mi SSE 10.4 mph - N/A   Overcast
10:17 PM 26.6 °F 16.8 °F 26.6 °F 100% 30.00 in 0.2 mi SE 10.4 mph 16.1 mph N/A   Overcast
10:35 PM 26.6 °F 16.8 °F 26.6 °F 100% 29.99 in 0.2 mi SE 10.4 mph - N/A Snow Light Snow
10:55 PM 26.6 °F 17.5 °F 26.6 °F 100% 30.02 in 0.2 mi SSE 9.2 mph - N/A Snow Light Snow
11:15 PM 26.6 °F 16.8 °F 26.6 °F 100% 29.99 in 0.2 mi SE 10.4 mph - N/A Snow Heavy Snow
11:35 PM 26.6 °F 17.5 °F 26.6 °F 100% 29.98 in 0.2 mi SSE 9.2 mph - N/A Snow Snow
11:55 PM 26.6 °F 17.5 °F 26.6 °F 100% 29.97 in 0.2 mi SE 9.2 mph - N/A Snow Snow